Skip Page Navigation
NASA JPL Caltech
NASA Logo - Jet Propulsion Laboratory + View the NASA Portal
+ Center for Near-Earth Object Studies
JPL Home Earth Solar System Stars & Galaxies Technology
JPL Solar System Dynamics
BODIES ORBITS EPHEMERIDES TOOLS PHYSICAL DATA DISCOVERY FAQ SITE MAP
JPL Small-Body Database Browser
Search: [ help ]  
385717 (2005 UC127)
Classification: Main-belt Asteroid          SPK-ID: 2385717
Ephemeris | Orbit Diagram | Orbital Elements | Mission Design | Physical Parameters | Discovery Circumstances ]

[ show orbit diagram ]
Orbital Elements at Epoch 2459200.5 (2020-Dec-17.0) TDB
Reference: JPL 11 (heliocentric ecliptic J2000)
 Element Value Uncertainty (1-sigma)   Units 
e .1910534266116188 7.609e-08  
a 2.445251313925536 1.1082e-08 au
q 1.978077671473499 1.9098e-07 au
i 2.041347313738457 5.5553e-06 deg
node 43.37843544530907 0.00022144 deg
peri 339.2892186472102 0.00022365 deg
M 359.745658723345 2.5349e-05 deg
tp 2459201.486729300076
(2020-Dec-17.98672930)
9.8344e-05 TDB
period 1396.637434155321
3.82
9.4944e-06
2.599e-08
d
yr
n .2577619582549183 1.7523e-09 deg/d
Q 2.912424956377572 1.3199e-08 au
  Orbit Determination Parameters
   # obs. used (total)      122  
   data-arc span      6945 days (19.01 yr)  
   first obs. used      2001-10-15  
   last obs. used      2020-10-20  
   planetary ephem.      DE441  
   SB-pert. ephem.      SB441-N16  
   condition code      0  
   norm. resid. RMS      .59712  
   source      ORB  
   producer      Otto Matic  
   solution date      2021-Apr-14 11:06:22  

Additional Information
 Earth MOID = .980212 au 
 Jupiter MOID = 2.54484 au 
 T_jup = 3.473 
[ show covariance matrix ]

Ephemeris | Orbit Diagram | Orbital Elements | Mission Design | Physical Parameters | Discovery Circumstances ]

Physical Parameter Table
Parameter Symbol Value Units Sigma Reference Notes
absolute magnitude H 18.47   n/a E2021B25  

385717 (2005 UC127)          Discovered 2005-Oct-24 by Spacewatch at Kitt Peak
Reference: Last Updated: 2014-02-19
Ephemeris | Orbit Diagram | Orbital Elements | Mission Design | Physical Parameters | Discovery Circumstances ]
ABOUT SSD CREDITS/AWARDS PRIVACY/COPYRIGHT GLOSSARY LINKS
FirstGov 2021-Jun-23 19:38 UT
(server date/time)  
NASA Home Page
Site Manager:   Ryan S. Park
Webmaster  Alan B. Chamberlin